Regional Weather Roundup
Issued by NWS Cleveland, OH

Home | Current Version | Previous Version | Graphics & Text | Print | Product List | Glossary On
Versions: 1 2 3 4 5 6 7 8 9 10 11 12 13 14 15 16 17 18 19 20 21 22 23 24 25 26 27 28 29 30 31 32 33 34 35 36 37 38 39 40 41 42 43 44 45 46 47 48 49 50
000
ASUS41 KCLE 210710
RWRCLE
OHIO REGIONAL WEATHER ROUNDUP
NATIONAL WEATHER SERVICE CLEVELAND, OH
300 AM EDT SUN SEP 21 2014

NOTE: "FAIR" INDICATES FEW OR NO CLOUDS BELOW 12,000 FEET WITH NO
SIGNIFICANT WEATHER AND/OR OBSTRUCTIONS TO VISIBILITY.

OHZ001>008-015>018-024>027-034-035-043-044-210800-
   NORTHWEST OHIO

CITY           SKY/WX    TMP DP  RH WIND       PRES   REMARKS
DEFIANCE       MOCLDY   N/A N/A N/A SW9       29.74F
FINDLAY        CLOUDY    67  64  90 S10       29.76F
TOLEDO EXPRESS CLOUDY    64  63  96 SW8       29.74F
TOLEDO EXEC    CLOUDY    66  62  87 S9        29.74F
LIMA           LGT RAIN  70  66  87 SW15      29.80F FOG
$$

OHZ009>014-019>023-028>033-038-089-210800-
   NORTHEAST OHIO

CITY           SKY/WX    TMP DP  RH WIND       PRES   REMARKS
CLE-HOPKINS    MOCLDY    67  61  81 S8        29.79F
CLE-LAKEFRONT  CLOUDY    70  61  73 S10       29.76F
CUY CO. ARPT   NOT AVBL
LORAIN-ELYRIA  MOCLDY    68  61  78 S7        29.78F
ASHTABULA      MOCLDY    66  62  87 S6        29.81F
AKRON-CANTON   CLOUDY    68  62  81 S10       29.83F
WOOSTER        LGT RAIN  67  63  87 S8        29.82F
MANSFIELD      CLOUDY    67  64  90 SW12      29.82F
YOUNGSTOWN     PTCLDY    66  62  87 S6        29.83F
$$

OHZ042-051>053-060>062-070>072-077>081-210800-
  SOUTHWEST OHIO

CITY           SKY/WX    TMP DP  RH WIND       PRES   REMARKS
CINC-COVINGTON PTCLDY    69  64  84 S8        29.87F
CINC-LUNKEN    PTCLDY    68  64  87 S8        29.87F
HAMILTON       PTCLDY    71  65  81 CALM      29.86F
DAYTON         MOCLDY    72  65  78 SW14      29.85F
WRIGHT-PAT AFB MOCLDY    71  65  81 SW12      29.84F
DAYTON GENERAL PTCLDY    71  65  81 SW9       29.86F
WILMINGTON     PTCLDY    67  63  87 S10       29.87F
$$

OHZ036-037-039>041-045>050-054>059-063>069-073>076-082>088-210800-
  CENTRAL AND SOUTHEAST OHIO

CITY           SKY/WX    TMP DP  RH WIND       PRES   REMARKS
COLUMBUS       CLOUDY    72  63  73 S9        29.84F
OSU AIRPORT    CLOUDY    71  64  78 SW9G20    29.83F
BOLTON FIELD   CLOUDY    69  65  86 SW10      29.85F
RICKENBACK AFB CLOUDY    68  63  83 S12       29.84F
NEWARK         PTCLDY    69  63  81 SW6       29.85F
MARION         CLOUDY    69  64  84 SW12      29.81F
LANCASTER      MOCLDY    71  63  75 SW8       29.86F
ZANESVILLE     MOCLDY    69  62  78 SW8       29.87F
NEW PHILLY     MOCLDY    69  63  81 SE5       29.85F
$$



USA.gov is the U.S. government's official web portal to all federal, state and local government web resources and services.